Location: Betpouey
(42.8833°N, 0.0333°E)
Time: 08:04:28
(UTC+00:00)

Cosmos 44 Rocket - Pass Details

Date: 01 December 2020
Orbit: 639 x 751 km, 65.1° (Epoch: 17 January)

Event Time Altitude Azimuth Distance (km) Brightness Sun altitude
Rises 17:35:41 0° 333° (NNW) 3,166 6.8 -12.4°
Reaches altitude 10° 17:38:22 10° 345° (NNW) 2,254 5.9 -12.8°
Maximum altitude 17:42:48 28° 44° (NE) 1,380 4.3 -13.6°
Enters shadow 17:45:09 20° 84° (E) 1,674 4.6 -14.0°
